This demonstration page uses our WeatherBlox Daily Observations layout. Learn more.

Left ArrowRight Arrow

Hourly Observations for May 15, 2015

Temp ( °F °C ) Dew Point ( °F °C ) Humidity (%) Winds ( mph kmh ) Pressure ( in mb ) Visibility ( mi km ) Precip ( " mm )
12:53 am 00:53 Cloudy 63 17.2 49 9.4 60 60 ESE 5 7 30.16 1022 10 16 0.00 0.00
1:53 am 01:53 Mostly Cloudy 62 16.7 50 10 65 65 Calm 30.15 1021 10 16 0.00 0.00
2:53 am 02:53 Clear 55 12.8 50 10 83 83 Calm 30.14 1021 10 16 0.00 0.00
3:53 am 03:53 Mostly Clear 54 12.2 50 10 87 87 Calm 30.13 1020 10 16 0.00 0.00
4:53 am 04:53 Mostly Cloudy 58 14.4 50 10 75 75 ESE 3 6 30.12 1020 10 16 0.00 0.00
5:53 am 05:53 Mostly Cloudy 59 15 51 10.6 75 75 E 3 6 30.11 1020 10 16 0.00 0.00
6:53 am 06:53 Cloudy 61 16.1 52 11.1 72 72 E 3 6 30.11 1020 10 16 0.00 0.00
7:53 am 07:53 Cloudy 63 17.2 53 11.7 70 70 ESE 5 7 30.12 1020 10 16 0.00 0.00
8:53 am 08:53 Partly Cloudy 69 20.6 56 13.3 63 63 VRB 3 6 30.13 1020 10 16 0.00 0.00
9:53 am 09:53 Partly Cloudy 76 24.4 60 15.6 58 58 SW 13 20 30.12 1020 10 16 0.00 0.00
10:53 am 10:53 Sunny 78 25.6 61 16.1 56 56 SW 9 15 30.11 1020 10 16 0.00 0.00
11:53 am 11:53 Sunny 80 26.7 61 16.1 52 52 WSW 13 20 30.13 1020 10 16 0.00 0.00
12:53 pm 12:53 Sunny 80 26.7 60 15.6 51 51 WSW 8 13 30.12 1020 10 16 0.00 0.00
1:53 pm 13:53 Partly Cloudy 82 27.8 60 15.6 47 47 SW 8 13 30.11 1020 10 16 0.00 0.00
2:53 pm 14:53 Mostly Cloudy 80 26.7 63 17.2 56 56 WNW 8 13 30.09 1019 10 16 0.00 0.03
3:53 pm 15:53 Mostly Sunny 81 27.2 63 17.2 54 54 VRB 7 11 30.07 1018 10 16 0.00 0.00
4:53 pm 16:53 Mostly Sunny 84 28.9 64 17.8 51 51 SW 8 13 30.04 1017 10 16 0.00 0.00
5:53 pm 17:53 Sunny 84 28.9 63 17.2 49 49 SW 10 17 30.03 1017 10 16 0.00 0.00
6:53 pm 18:53 Sunny 84 28.9 64 17.8 51 51 SSW 10 17 30.03 1017 10 16 0.00 0.00
7:53 pm 19:53 Sunny 80 26.7 64 17.8 58 58 SSW 6 9 30.03 1017 10 16 0.00 0.00
8:53 pm 20:53 Clear 74 23.3 63 17.2 69 69 Calm 30.04 1017 10 16 0.00 0.00
9:53 pm 21:53 Clear 69 20.6 63 17.2 81 81 Calm 30.05 1018 10 16 0.00 0.00
10:53 pm 22:53 Mostly Cloudy 69 20.6 64 17.8 84 84 Calm 30.07 1018 10 16 0.00 0.00
11:53 pm 23:53 Mostly Cloudy 76 24.4 64 17.8 67 67 VRB 6 9 30.08 1019 10 16 0.00 0.00

Powered by AerisWeather